When you browse on this site, cookies collect data to enhance your experience and personalize the content and advertising you see.
Visit our Privacy Policy to learn more. By continuing to use the site, you agree to this use of cookies and data.
  • In Hungary
  • List of Countries
  • For 7 days
  • Water Temperature
  • Satellite Maps
  • Weather Map
  • News
  • Weather Widgets
  • user-avatar
    Login

    Hourly Weather Kareli

    Today, 19 March, Tuesday

    Time Temperature Precipitation Wind Pressure Humidity
    00:00 +26°C° 0 mm 2 mps 727 mmHg 34%
    01:00 +26°C° 0 mm 1 mps 727 mmHg 37%
    02:00 +25°C° 0 mm 1 mps 727 mmHg 39%
    03:00 +25°C° 0 mm 1 mps 727 mmHg 41%
    04:00 +25°C° 0 mm 1 mps 727 mmHg 42%
    05:00 +24°C° 0 mm 1 mps 727 mmHg 44%
    06:00 +26°C° 0 mm 1 mps 727 mmHg 41%
    07:00 +27°C° 0 mm 1 mps 728 mmHg 38%
    08:00 +28°C° 0 mm 1 mps 728 mmHg 35%
    09:00 +30°C° 0 mm 1 mps 728 mmHg 31%
    10:00 +32°C° 0 mm 1 mps 728 mmHg 27%
    11:00 +34°C° 0 mm 1 mps 728 mmHg 23%
    12:00 +36°C° 0 mm 2 mps 727 mmHg 20%
    13:00 +36°C° 0 mm 3 mps 727 mmHg 18%
    14:00 +37°C° 0 mm 3 mps 726 mmHg 16%
    15:00 +37°C° 0 mm 3 mps 726 mmHg 15%
    16:00 +36°C° 0 mm 3 mps 726 mmHg 15%
    17:00 +36°C° 0 mm 3 mps 725 mmHg 14%
    18:00 +35°C° 0 mm 2 mps 726 mmHg 15%
    19:00 +32°C° 0 mm 2 mps 726 mmHg 16%
    20:00 +30°C° 0 mm 1 mps 726 mmHg 17%
    21:00 +30°C° 0 mm 1 mps 726 mmHg 18%
    22:00 +29°C° 0 mm 1 mps 726 mmHg 18%
    23:00 +28°C° 0 mm 1 mps 726 mmHg 19%

    Tomorrow, 20 March, Wednesday

    Time Temperature Precipitation Wind Pressure Humidity
    00:00 +28°C° 0 mm 1 mps 726 mmHg 20%
    01:00 +27°C° 0 mm 1 mps 726 mmHg 20%
    02:00 +26°C° 0 mm 1 mps 725 mmHg 21%
    03:00 +26°C° 0 mm 1 mps 725 mmHg 22%
    04:00 +25°C° 0 mm 1 mps 725 mmHg 22%
    05:00 +25°C° 0 mm 1 mps 725 mmHg 23%
    06:00 +26°C° 0 mm 2 mps 726 mmHg 21%
    07:00 +28°C° 0 mm 2 mps 727 mmHg 20%
    08:00 +30°C° 0 mm 3 mps 728 mmHg 18%
    09:00 +33°C° 0 mm 3 mps 728 mmHg 16%
    10:00 +35°C° 0 mm 3 mps 728 mmHg 14%
    11:00 +38°C° 0 mm 3 mps 728 mmHg 12%
    12:00 +38°C° 0 mm 3 mps 727 mmHg 11%
    13:00 +39°C° 0 mm 3 mps 726 mmHg 11%
    14:00 +39°C° 0 mm 3 mps 725 mmHg 10%
    15:00 +39°C° 0 mm 2 mps 725 mmHg 11%
    16:00 +38°C° 0 mm 2 mps 725 mmHg 12%
    17:00 +38°C° 0 mm 2 mps 725 mmHg 13%
    18:00 +36°C° 0 mm 2 mps 725 mmHg 16%
    19:00 +35°C° 0 mm 2 mps 726 mmHg 20%
    20:00 +32°C° 0 mm 2 mps 726 mmHg 23%
    21:00 +31°C° 0 mm 2 mps 726 mmHg 28%
    22:00 +30°C° 0 mm 3 mps 726 mmHg 32%
    23:00 +30°C° 0 mm 3 mps 726 mmHg 37%

    Day after tomorrow, 21 March, Thursday

    Time Temperature Precipitation Wind Pressure Humidity
    00:00 +29°C° 0 mm 2 mps 726 mmHg 40%
    01:00 +28°C° 0 mm 2 mps 725 mmHg 42%
    02:00 +27°C° 0 mm 2 mps 725 mmHg 45%
    03:00 +27°C° 0 mm 2 mps 725 mmHg 47%
    04:00 +27°C° 0 mm 3 mps 725 mmHg 48%
    05:00 +26°C° 0 mm 3 mps 725 mmHg 50%
    06:00 +28°C° 0 mm 3 mps 726 mmHg 47%
    07:00 +29°C° 0 mm 4 mps 727 mmHg 45%
    08:00 +32°C° 0 mm 4 mps 728 mmHg 42%
    09:00 +34°C° 0 mm 4 mps 728 mmHg 35%
    10:00 +36°C° 0 mm 3 mps 728 mmHg 28%
    11:00 +37°C° 0 mm 3 mps 728 mmHg 21%
    12:00 +38°C° 0 mm 3 mps 728 mmHg 20%
    13:00 +38°C° 0 mm 3 mps 727 mmHg 19%
    14:00 +39°C° 0 mm 3 mps 726 mmHg 18%
    15:00 +38°C° 0 mm 3 mps 726 mmHg 19%
    16:00 +38°C° 0 mm 3 mps 726 mmHg 19%
    17:00 +38°C° 0 mm 3 mps 725 mmHg 20%
    18:00 +36°C° 0 mm 2 mps 726 mmHg 23%
    19:00 +34°C° 0 mm 2 mps 727 mmHg 27%
    20:00 +32°C° 0 mm 2 mps 727 mmHg 31%
    21:00 +31°C° 0 mm 2 mps 727 mmHg 33%
    22:00 +30°C° 0 mm 2 mps 727 mmHg 35%
    23:00 +29°C° 0 mm 1 mps 727 mmHg 37%

    22 March, Friday

    Time Temperature Precipitation Wind Pressure Humidity
    00:00 +29°C° 0 mm 1 mps 727 mmHg 36%
    01:00 +28°C° 0 mm 1 mps 726 mmHg 35%
    02:00 +28°C° 0 mm 1 mps 726 mmHg 35%
    03:00 +27°C° 0 mm 1 mps 726 mmHg 32%
    04:00 +27°C° 0 mm 1 mps 726 mmHg 30%
    05:00 +26°C° 0 mm 1 mps 726 mmHg 28%
    06:00 +28°C° 0 mm 1 mps 727 mmHg 25%
    07:00 +29°C° 0 mm 1 mps 728 mmHg 22%
    08:00 +31°C° 0 mm 1 mps 729 mmHg 18%
    09:00 +33°C° 0 mm 1 mps 729 mmHg 16%
    10:00 +35°C° 0 mm 1 mps 729 mmHg 14%
    11:00 +37°C° 0 mm 1 mps 729 mmHg 12%
    12:00 +38°C° 0 mm 2 mps 728 mmHg 12%
    13:00 +39°C° 0 mm 3 mps 727 mmHg 11%
    14:00 +40°C° 0 mm 3 mps 727 mmHg 11%
    15:00 +40°C° 0 mm 4 mps 726 mmHg 11%
    16:00 +40°C° 0 mm 4 mps 726 mmHg 11%
    17:00 +38°C° 0 mm 4 mps 726 mmHg 11%
    18:00 +37°C° 0 mm 3 mps 726 mmHg 12%
    19:00 +35°C° 0 mm 2 mps 727 mmHg 13%
    20:00 +32°C° 0 mm 2 mps 727 mmHg 14%
    21:00 +31°C° 0 mm 1 mps 727 mmHg 15%
    22:00 +31°C° 0 mm 1 mps 727 mmHg 15%
    23:00 +30°C° 0 mm 1 mps 727 mmHg 15%

    23 March, Saturday

    Time Temperature Precipitation Wind Pressure Humidity
    00:00 +29°C° 0 mm 1 mps 727 mmHg 16%
    01:00 +28°C° 0 mm 1 mps 727 mmHg 16%
    02:00 +27°C° 0 mm 1 mps 726 mmHg 17%
    03:00 +26°C° 0 mm 1 mps 726 mmHg 18%
    04:00 +26°C° 0 mm 1 mps 727 mmHg 18%
    05:00 +25°C° 0 mm 1 mps 727 mmHg 19%
    06:00 +27°C° 0 mm 2 mps 728 mmHg 19%
    07:00 +28°C° 0 mm 2 mps 728 mmHg 18%
    08:00 +30°C° 0 mm 3 mps 729 mmHg 17%
    09:00 +31°C° 0 mm 3 mps 729 mmHg 16%
    10:00 +34°C° 0 mm 3 mps 729 mmHg 14%
    11:00 +36°C° 0 mm 3 mps 729 mmHg 13%
    12:00 +37°C° 0 mm 3 mps 728 mmHg 12%
    13:00 +38°C° 0 mm 3 mps 727 mmHg 11%
    14:00 +38°C° 0 mm 3 mps 726 mmHg 10%
    15:00 +38°C° 0 mm 3 mps 726 mmHg 10%
    16:00 +38°C° 0 mm 2 mps 726 mmHg 10%
    17:00 +37°C° 0 mm 2 mps 726 mmHg 10%
    18:00 +36°C° 0 mm 2 mps 726 mmHg 11%
    19:00 +34°C° 0 mm 2 mps 727 mmHg 12%
    20:00 +31°C° 0 mm 2 mps 727 mmHg 13%
    21:00 +30°C° 0 mm 2 mps 727 mmHg 13%
    22:00 +29°C° 0 mm 2 mps 727 mmHg 13%
    23:00 +28°C° 0 mm 2 mps 727 mmHg 13%

    24 March, Sunday

    Time Temperature Precipitation Wind Pressure Humidity
    00:00 +28°C° 0 mm 2 mps 727 mmHg 14%
    01:00 +27°C° 0 mm 1 mps 726 mmHg 15%
    02:00 +26°C° 0 mm 1 mps 726 mmHg 15%
    03:00 +26°C° 0 mm 1 mps 726 mmHg 16%
    04:00 +25°C° 0 mm 1 mps 726 mmHg 17%
    05:00 +25°C° 0 mm 1 mps 726 mmHg 17%
    06:00 +26°C° 0 mm 1 mps 727 mmHg 17%
    07:00 +28°C° 0 mm 1 mps 728 mmHg 16%
    08:00 +30°C° 0 mm 1 mps 728 mmHg 15%
    09:00 +32°C° 0 mm 1 mps 728 mmHg 14%
    10:00 +35°C° 0 mm 2 mps 728 mmHg 13%
    11:00 +36°C° 0 mm 2 mps 728 mmHg 11%
    12:00 +37°C° 0 mm 2 mps 728 mmHg 11%
    13:00 +38°C° 0 mm 3 mps 727 mmHg 11%
    14:00 +39°C° 0 mm 3 mps 726 mmHg 10%
    15:00 +39°C° 0 mm 3 mps 726 mmHg 10%
    16:00 +38°C° 0 mm 2 mps 726 mmHg 11%
    17:00 +38°C° 0 mm 2 mps 726 mmHg 11%
    18:00 +35°C° 0 mm 1 mps 727 mmHg 12%
    19:00 +34°C° 0 mm 1 mps 727 mmHg 13%
    20:00 +32°C° 0 mm 1 mps 728 mmHg 15%
    21:00 +31°C° 0 mm 1 mps 728 mmHg 15%
    22:00 +31°C° 0 mm 1 mps 728 mmHg 16%
    23:00 +30°C° 0 mm 1 mps 728 mmHg 16%
    Show more